W9KHP-1 Weather Reports


time (UTC)temp
C
wind
direction
speed
KPH
gust
KPH
rain 1hr
cm
rain 24hr
cm
rain mn
cm
humidity
%
barometer
mb
20260906104854 23 2 0.0 0.0 0.00 0.00 0.00 97 1015.2
20260906104352 23 7 0.0 1.6 0.00 0.00 0.00 97 1015.2
20260906103851 23 348 0.0 1.6 0.00 0.00 0.00 97 1015.1
20260906103349 23 5 0.0 0.0 0.00 0.00 0.00 97 1015.0
20260906102846 23 30 0.0 4.8 0.00 0.00 0.00 97 1015.1
20260906102344 23 9 0.0 0.0 0.00 0.00 0.00 97 1015.1
20260906101840 23 343 0.0 0.0 0.00 0.00 0.00 98 1015.0
20260906101335 23 12 0.0 0.0 0.00 0.00 0.00 98 1015.0
20260906100831 23 352 0.0 1.6 0.00 0.00 0.00 98 1014.9
20260906100329 23 347 0.0 0.0 0.00 0.00 0.00 97 1014.9
20260906095825 23 342 0.0 0.0 0.00 0.00 0.00 97 1014.9
20260906095320 23 345 0.0 0.0 0.00 0.00 0.00 97 1014.8
20260906094819 23 346 0.0 0.0 0.00 0.00 0.00 97 1014.7
20260906094315 23 339 0.0 0.0 0.00 0.00 0.00 97 1014.7
20260906093811 23 340 0.0 0.0 0.00 0.00 0.00 96 1014.6
20260906093307 23 340 0.0 0.0 0.00 0.00 0.00 96 1014.8
20260906092756 23 341 0.0 0.0 0.00 0.00 0.00 96 1014.7
20260906092256 23 325 0.0 0.0 0.00 0.00 0.00 95 1014.6
20260906091752 23 353 0.0 0.0 0.00 0.00 0.00 95 1014.5
20260906091248 23 347 0.0 0.0 0.00 0.00 0.00 95 1014.7
20260906090744 23 342 0.0 0.0 0.00 0.00 0.00 94 1014.4
20260906090242 24 349 0.0 0.0 0.00 0.00 0.00 93 1014.5
20260906085736 24 4 0.0 0.0 0.00 0.00 0.00 93 1014.3
20260906085235 23 2 0.0 0.0 0.00 0.00 0.00 94 1014.5
20260906084730 23 359 0.0 0.0 0.00 0.00 0.00 95 1014.4
20260906084224 23 343 0.0 0.0 0.00 0.00 0.00 94 1014.6
20260906083719 23 339 0.0 0.0 0.00 0.00 0.00 94 1014.4
20260906083215 23 338 0.0 0.0 0.00 0.00 0.00 95 1014.5
20260906082710 23 344 0.0 0.0 0.00 0.00 0.00 95 1014.6
20260906082205 23 351 0.0 0.0 0.00 0.00 0.00 95 1014.5
20260906081701 23 351 0.0 0.0 0.00 0.00 0.00 95 1014.6
20260906081150 23 352 0.0 0.0 0.00 0.00 0.00 96 1014.4
20260906080647 23 352 0.0 0.0 0.00 0.00 0.00 96 1014.4
20260906080142 23 352 0.0 0.0 0.00 0.00 0.00 95 1014.4
20260906075636 23 352 0.0 0.0 0.00 0.00 0.00 96 1014.2
20260906075131 23 352 0.0 0.0 0.00 0.00 0.00 96 1014.3
20260906074627 23 352 0.0 0.0 0.00 0.00 0.00 97 1014.3
20260906074125 23 352 0.0 0.0 0.00 0.00 0.00 97 1014.2
20260906073620 23 352 0.0 0.0 0.00 0.00 0.00 97 1014.5
20260906073116 23 352 0.0 0.0 0.00 0.00 0.00 96 1014.5
20260906072610 23 352 0.0 0.0 0.00 0.00 0.00 96 1014.4
20260906072106 23 352 0.0 0.0 0.00 0.00 0.00 95 1014.5
20260906071602 23 352 0.0 0.0 0.00 0.00 0.00 95 1014.2
20260906071056 23 352 0.0 0.0 0.00 0.00 0.00 95 1014.3
20260906070553 23 352 0.0 0.0 0.00 0.00 0.00 95 1014.5
20260906070049 23 352 0.0 0.0 0.00 0.00 0.00 95 1014.5
20260906065548 23 352 0.0 0.0 0.00 0.00 0.00 95 1014.4
20260906065044 24 353 0.0 0.0 0.00 0.00 0.00 94 1014.6
20260906064540 24 353 0.0 0.0 0.00 0.00 0.00 93 1014.6
20260906064035 24 352 0.0 0.0 0.00 0.00 0.00 93 1014.8
20260906063530 24 357 0.0 0.0 0.00 0.00 0.00 94 1014.5
20260906063026 24 345 0.0 0.0 0.00 0.00 0.00 94 1014.7
20260906062521 24 345 0.0 0.0 0.00 0.00 0.00 94 1014.8
20260906062010 24 342 0.0 0.0 0.00 0.00 0.00 94 1014.8
20260906061505 24 352 0.0 0.0 0.00 0.00 0.00 94 1014.7
20260906061000 24 343 0.0 0.0 0.00 0.00 0.00 94 1014.9
20260906060456 24 356 0.0 0.0 0.00 0.00 0.00 94 1014.8
20260906055953 24 343 1.6 4.8 0.00 0.00 0.00 95 1014.8
20260906055449 24 338 0.0 0.0 0.00 0.00 0.00 94 1014.6
20260906054944 24 338 0.0 0.0 0.00 0.00 0.00 94 1014.6
20260906054444 24 338 0.0 0.0 0.00 0.00 0.00 94 1014.6
20260906053939 24 337 0.0 0.0 0.00 0.00 0.00 94 1014.7
20260906053436 24 337 0.0 0.0 0.00 0.00 0.00 93 1015.0
20260906052931 24 350 0.0 0.0 0.00 0.00 0.00 93 1014.8
20260906052427 24 316 0.0 0.0 0.00 0.00 0.00 92 1014.9
20260906051923 25 315 0.0 0.0 0.00 0.00 0.00 92 1015.0
20260906051418 25 338 0.0 0.0 0.00 0.00 0.00 91 1014.9
20260906050914 25 338 0.0 0.0 0.00 0.00 0.00 91 1014.8
20260906050408 25 338 0.0 0.0 0.00 0.00 0.00 91 1015.0
20260906045908 25 337 0.0 0.0 0.00 0.00 0.00 91 1014.9
20260906045406 25 316 0.0 0.0 0.00 0.00 0.00 91 1014.9
20260906044903 25 352 0.0 0.0 0.00 0.00 0.00 91 1015.0
20260906044403 25 348 0.0 0.0 0.00 0.00 0.00 93 1014.8
20260906043858 25 358 0.0 0.0 0.00 0.00 0.00 91 1014.8
20260906043354 25 348 0.0 0.0 0.00 0.00 0.00 92 1014.9
20260906042849 25 348 0.0 0.0 0.00 0.00 0.00 92 1014.8
20260906042348 24 359 0.0 0.0 0.00 0.00 0.00 93 1014.6
20260906041843 25 359 0.0 0.0 0.00 0.00 0.00 94 1014.6
20260906041339 25 359 0.0 0.0 0.00 0.00 0.00 92 1014.5
20260906040839 25 359 0.0 0.0 0.00 0.00 0.00 91 1014.3
20260906040335 25 359 0.0 0.0 0.00 0.00 0.00 90 1014.4
20260906035830 25 359 0.0 0.0 0.00 0.00 0.00 89 1014.3
20260906035325 25 359 0.0 0.0 0.00 0.00 0.00 88 1014.1
20260906034821 25 359 0.0 0.0 0.00 0.00 0.00 88 1014.2
20260906034321 25 359 0.0 0.0 0.00 0.00 0.00 88 1014.2
20260906033816 25 359 0.0 0.0 0.00 0.00 0.00 89 1014.2
20260906033315 25 359 0.0 0.0 0.00 0.00 0.00 90 1014.2
20260906032812 25 359 0.0 0.0 0.00 0.00 0.00 88 1014.2
20260906032308 25 359 0.0 0.0 0.00 0.00 0.00 88 1014.0
20260906031803 25 359 0.0 0.0 0.00 0.00 0.00 87 1014.3
20260906031258 25 359 0.0 0.0 0.00 0.00 0.00 88 1014.2
20260906030758 25 0 0.0 0.0 0.00 0.00 0.00 87 1014.2
20260906030253 25 0 0.0 0.0 0.00 0.00 0.00 87 1014.3
20260906025753 25 0 0.0 0.0 0.00 0.00 0.00 89 1014.1
20260906025247 25 0 0.0 0.0 0.00 0.00 0.00 89 1013.8
20260906024746 25 0 0.0 0.0 0.00 0.00 0.00 87 1013.8
20260906024246 26 0 0.0 0.0 0.00 0.00 0.00 87 1013.8
20260906023742 26 0 0.0 0.0 0.00 0.00 0.00 87 1013.7
20260906023237 26 0 0.0 0.0 0.00 0.00 0.00 87 1013.6
20260906022732 26 0 0.0 0.0 0.00 0.00 0.00 86 1013.7
20260906022227 26 0 0.0 0.0 0.00 0.00 0.00 87 1013.5
20260906021724 26 0 0.0 0.0 0.00 0.00 0.00 86 1013.3
20260906021222 26 0 0.0 0.0 0.00 0.00 0.00 84 1013.3
20260906020717 27 0 0.0 0.0 0.00 0.00 0.00 84 1013.3
20260906020211 27 0 0.0 0.0 0.00 0.00 0.00 82 1013.3
20260906015707 27 0 0.0 0.0 0.00 0.00 0.00 80 1013.1
20260906015205 27 0 0.0 0.0 0.00 0.00 0.00 80 1013.0
20260906014659 27 0 0.0 0.0 0.00 0.00 0.00 82 1013.4
20260906014155 27 18 0.0 0.0 0.00 0.00 0.00 82 1013.1
20260906013650 27 352 0.0 0.0 0.00 0.00 0.00 84 1013.2
20260906013146 27 351 0.0 0.0 0.00 0.00 0.00 79 1013.4
20260906012645 27 349 0.0 0.0 0.00 0.00 0.00 85 1013.3
20260906012140 27 337 0.0 0.0 0.00 0.00 0.00 87 1013.3
20260906011636 27 304 0.0 0.0 0.00 0.00 0.00 85 1013.3
20260906011131 27 341 0.0 0.0 0.00 0.00 0.00 87 1013.2
20260906010626 27 334 0.0 0.0 0.00 0.00 0.00 85 1013.2
20260906010122 27 353 0.0 0.0 0.00 0.00 0.00 85 1013.1
20260906005616 28 339 0.0 0.0 0.00 0.00 0.00 84 1013.0
20260906005115 28 339 0.0 0.0 0.00 0.00 0.00 81 1012.9
20260906004614 28 331 0.0 0.0 0.00 0.00 0.00 80 1012.8
20260906004109 28 340 0.0 0.0 0.00 0.00 0.00 79 1013.0
20260906003605 28 344 0.0 3.2 0.00 0.00 0.00 79 1012.8
20260906003100 28 340 0.0 0.0 0.00 0.00 0.00 80 1012.6
20260906002555 29 330 0.0 0.0 0.00 0.00 0.00 80 1012.4
20260906002049 29 290 0.0 0.0 0.00 0.00 0.00 79 1012.7
20260906001544 30 267 0.0 0.0 0.00 0.00 0.00 76 1012.6
20260906001039 30 347 0.0 0.0 0.00 0.00 0.00 75 1012.7
20260906000535 30 341 0.0 0.0 0.00 0.00 0.00 73 1012.8
20260906000030 30 330 0.0 0.0 0.00 0.00 0.00 73 1012.9
20260905235523 30 307 0.0 0.0 0.00 0.00 0.00 74 1012.9
20260905235019 30 11 0.0 0.0 0.00 0.00 0.00 76 1013.1
20260905234515 30 345 0.0 0.0 0.00 0.00 0.00 77 1013.0
20260905234009 30 345 0.0 0.0 0.00 0.00 0.00 76 1013.0
20260905233504 30 345 0.0 0.0 0.00 0.00 0.00 76 1012.8
20260905233004 30 345 0.0 0.0 0.00 0.00 0.00 76 1012.9
20260905232459 30 345 0.0 0.0 0.00 0.00 0.00 75 1012.8
20260905231955 30 345 0.0 0.0 0.00 0.00 0.00 74 1012.7
20260905231450 31 345 0.0 0.0 0.00 0.00 0.00 74 1012.6
20260905230947 31 345 0.0 0.0 0.00 0.00 0.00 73 1012.7
20260905230445 31 345 0.0 0.0 0.00 0.00 0.00 74 1012.6
20260905225943 31 345 0.0 0.0 0.00 0.00 0.00 73 1012.6
20260905225438 31 345 0.0 0.0 0.00 0.00 0.00 72 1012.5
20260905224933 31 345 0.0 0.0 0.00 0.00 0.00 72 1012.4
20260905224428 31 345 0.0 0.0 0.00 0.00 0.00 70 1012.3
20260905223922 31 345 0.0 0.0 0.00 0.00 0.00 70 1012.3
20260905223420 31 340 0.0 0.0 0.00 0.00 0.00 74 1012.1
20260905222915 31 265 0.0 0.0 0.00 0.00 0.00 70 1012.1
20260905222414 32 341 0.0 0.0 0.00 0.00 0.00 73 1012.1
20260905221910 32 343 0.0 0.0 0.00 0.00 0.00 66 1012.1
20260905221407 32 10 0.0 0.0 0.00 0.00 0.00 63 1012.2
20260905220903 32 339 0.0 0.0 0.00 0.00 0.00 68 1012.3
20260905220358 33 311 0.0 0.0 0.00 0.00 0.00 71 1012.4
20260905215857 33 348 0.0 0.0 0.00 0.00 0.00 67 1012.3
20260905215353 34 348 0.0 0.0 0.00 0.00 0.00 66 1012.1
20260905214850 34 348 0.0 0.0 0.00 0.00 0.00 63 1012.0
20260905214345 35 349 0.0 0.0 0.00 0.00 0.00 62 1012.0
20260905213839 36 335 0.0 0.0 0.00 0.00 0.00 56 1012.1
20260905213336 37 339 0.0 0.0 0.00 0.00 0.00 56 1011.8
20260905212835 37 338 0.0 0.0 0.00 0.00 0.00 57 1011.9
20260905212330 36 339 0.0 0.0 0.00 0.00 0.00 54 1012.0
20260905211825 36 8 0.0 0.0 0.00 0.00 0.00 63 1012.2
20260905211320 37 347 0.0 0.0 0.00 0.00 0.00 53 1012.1
20260905210817 37 337 0.0 0.0 0.00 0.00 0.00 50 1012.1
20260905210316 37 324 0.0 0.0 0.00 0.00 0.00 48 1012.2
20260905205815 37 334 0.0 1.6 0.00 0.00 0.00 47 1012.4
20260905205310 38 303 0.0 0.0 0.00 0.00 0.00 49 1012.4
20260905204809 37 319 0.0 3.2 0.00 0.00 0.00 47 1012.6
20260905204306 37 331 1.6 4.8 0.00 0.00 0.00 56 1012.5
20260905203804 38 335 0.0 1.6 0.00 0.00 0.00 47 1012.5
20260905203259 38 329 3.2 3.2 0.00 0.00 0.00 44 1012.6
20260905202750 38 295 0.0 1.6 0.00 0.00 0.00 48 1012.9
20260905202244 38 57 1.6 4.8 0.00 0.00 0.00 46 1012.8
20260905201740 38 216 6.4 6.4 0.00 0.00 0.00 46 1012.5
20260905201235 38 201 8.0 11.3 0.00 0.00 0.00 46 1012.6
20260905200730 39 344 0.0 3.2 0.00 0.00 0.00 49 1012.7
20260905200226 38 329 1.6 9.7 0.00 0.00 0.00 49 1013.0
20260905195724 38 319 1.6 1.6 0.00 0.00 0.00 52 1013.2
20260905195218 38 330 0.0 1.6 0.00 0.00 0.00 46 1013.0
20260905194714 38 335 0.0 6.4 0.00 0.00 0.00 47 1013.1
20260905194214 38 284 0.0 1.6 0.00 0.00 0.00 49 1013.2
20260905193708 39 10 1.6 3.2 0.00 0.00 0.00 50 1013.3
20260905193203 38 298 1.6 1.6 0.00 0.00 0.00 48 1013.4
20260905192659 37 203 3.2 4.8 0.00 0.00 0.00 49 1013.4
20260905192155 38 188 3.2 4.8 0.00 0.00 0.00 48 1013.7
20260905191654 38 337 0.0 0.0 0.00 0.00 0.00 51 1013.9
20260905191152 37 268 1.6 3.2 0.00 0.00 0.00 51 1013.8
20260905190651 38 308 1.6 3.2 0.00 0.00 0.00 50 1013.8
20260905190150 37 294 0.0 3.2 0.00 0.00 0.00 50 1013.9
20260905185649 37 337 0.0 0.0 0.00 0.00 0.00 50 1014.0
20260905185144 38 39 3.2 3.2 0.00 0.00 0.00 47 1014.0
20260905184643 38 323 3.2 3.2 0.00 0.00 0.00 49 1014.0
20260905184142 38 341 0.0 0.0 0.00 0.00 0.00 50 1014.1
20260905183641 38 328 0.0 6.4 0.00 0.00 0.00 52 1014.2
20260905183137 37 217 1.6 4.8 0.00 0.00 0.00 51 1014.2
20260905182636 37 326 1.6 3.2 0.00 0.00 0.00 52 1014.2
20260905182131 37 331 0.0 0.0 0.00 0.00 0.00 52 1014.5
20260905181626 38 138 1.6 3.2 0.00 0.00 0.00 52 1014.5
20260905181125 38 164 1.6 3.2 0.00 0.00 0.00 54 1014.5
20260905180620 37 108 0.0 3.2 0.00 0.00 0.00 55 1014.5
20260905180116 36 283 4.8 6.4 0.00 0.00 0.00 56 1014.5
20260905175615 37 120 3.2 4.8 0.00 0.00 0.00 53 1014.8
20260905175110 38 156 0.0 3.2 0.00 0.00 0.00 51 1014.7
20260905174606 36 316 0.0 0.0 0.00 0.00 0.00 56 1015.0
20260905174101 37 329 0.0 0.0 0.00 0.00 0.00 57 1014.9
20260905173557 37 317 0.0 0.0 0.00 0.00 0.00 57 1015.1
20260905173053 36 326 0.0 1.6 0.00 0.00 0.00 54 1015.1
20260905172551 37 0 3.2 3.2 0.00 0.00 0.00 58 1015.1
20260905172047 37 345 0.0 3.2 0.00 0.00 0.00 55 1015.1
20260905171543 37 317 0.0 1.6 0.00 0.00 0.00 57 1015.2
20260905171039 36 333 0.0 3.2 0.00 0.00 0.00 60 1015.3
20260905170535 37 214 3.2 6.4 0.00 0.00 0.00 58 1015.4
20260905170030 36 337 0.0 3.2 0.00 0.00 0.00 61 1015.5
20260905165525 36 327 0.0 3.2 0.00 0.00 0.00 61 1015.5
20260905165020 37 316 1.6 1.6 0.00 0.00 0.00 59 1015.6
20260905164519 36 338 1.6 4.8 0.00 0.00 0.00 58 1015.5
20260905164014 36 150 4.8 6.4 0.00 0.00 0.00 61 1015.8
20260905163510 35 40 1.6 3.2 0.00 0.00 0.00 62 1015.8
20260905163006 36 311 0.0 0.0 0.00 0.00 0.00 63 1016.2
20260905162501 36 334 0.0 1.6 0.00 0.00 0.00 61 1016.1
20260905161957 35 353 0.0 1.6 0.00 0.00 0.00 62 1016.3
20260905161456 35 338 1.6 3.2 0.00 0.00 0.00 62 1016.2
20260905160954 34 336 0.0 1.6 0.00 0.00 0.00 66 1016.4
20260905160448 34 333 0.0 1.6 0.00 0.00 0.00 65 1016.3
20260905155947 35 164 3.2 4.8 0.00 0.00 0.00 63 1016.3
20260905155442 34 313 0.0 1.6 0.00 0.00 0.00 67 1016.2
20260905154941 33 284 3.2 3.2 0.00 0.00 0.00 67 1016.3
20260905154436 32 294 1.6 1.6 0.00 0.00 0.00 69 1016.3
20260905153932 33 8 0.0 0.0 0.00 0.00 0.00 72 1016.3
20260905153428 32 326 0.0 0.0 0.00 0.00 0.00 76 1016.3
20260905152927 31 186 1.6 3.2 0.00 0.00 0.00 74 1016.4
20260905152427 31 131 0.0 3.2 0.00 0.00 0.00 75 1016.2
20260905151922 31 4 0.0 0.0 0.00 0.00 0.00 77 1016.4
20260905151413 31 7 0.0 0.0 0.00 0.00 0.00 78 1016.4
20260905150912 31 339 0.0 0.0 0.00 0.00 0.00 75 1016.4
20260905150407 31 321 3.2 3.2 0.00 0.00 0.00 75 1016.4
20260905145903 31 336 0.0 0.0 0.00 0.00 0.00 78 1016.3
20260905145358 30 187 0.0 0.0 0.00 0.00 0.00 80 1016.3
20260905144857 30 343 0.0 0.0 0.00 0.00 0.00 79 1016.4
20260905144353 30 346 0.0 0.0 0.00 0.00 0.00 79 1016.4
20260905143851 30 347 0.0 0.0 0.00 0.00 0.00 80 1016.4
20260905143346 30 318 0.0 0.0 0.00 0.00 0.00 79 1016.6
20260905142840 29 341 0.0 3.2 0.00 0.00 0.00 79 1016.4
20260905142338 29 355 0.0 0.0 0.00 0.00 0.00 82 1016.4
20260905141835 28 137 0.0 0.0 0.00 0.00 0.00 81 1016.5
20260905141330 28 150 0.0 3.2 0.00 0.00 0.00 81 1016.4
20260905140826 28 302 0.0 3.2 0.00 0.00 0.00 83 1016.6
20260905140325 28 178 1.6 1.6 0.00 0.00 0.00 83 1016.7
20260905135824 28 225 1.6 3.2 0.00 0.00 0.00 84 1017.0
20260905135320 28 263 0.0 3.2 0.00 0.00 0.00 85 1017.0
20260905134816 27 336 0.0 0.0 0.00 0.00 0.00 86 1017.1
20260905134314 27 349 0.0 0.0 0.00 0.00 0.00 88 1016.8
20260905133808 27 353 0.0 0.0 0.00 0.00 0.00 89 1016.8
20260905133304 27 353 0.0 0.0 0.00 0.00 0.00 87 1016.8
20260905132803 27 358 0.0 0.0 0.00 0.00 0.00 88 1017.0
20260905132258 27 8 0.0 0.0 0.00 0.00 0.00 90 1016.8
20260905131753 27 8 0.0 0.0 0.00 0.00 0.00 91 1016.8
20260905131248 26 9 0.0 0.0 0.00 0.00 0.00 89 1017.1
20260905130743 26 9 0.0 1.6 0.00 0.00 0.00 90 1017.0
20260905130242 26 9 0.0 0.0 0.00 0.00 0.00 92 1017.1
20260905125738 25 2 0.0 0.0 0.00 0.00 0.00 95 1017.1
20260905125233 25 350 0.0 0.0 0.00 0.00 0.00 96 1017.1
20260905124730 25 350 0.0 0.0 0.00 0.00 0.00 95 1016.8
20260905124225 25 350 0.0 0.0 0.00 0.00 0.00 95 1017.1
20260905123720 25 350 0.0 0.0 0.00 0.00 0.00 95 1016.8
20260905123218 25 350 0.0 0.0 0.00 0.00 0.00 94 1016.7
20260905122717 25 350 0.0 0.0 0.00 0.00 0.00 94 1016.7
20260905122217 25 350 0.0 0.0 0.00 0.00 0.00 94 1016.7
20260905121712 25 350 0.0 0.0 0.00 0.00 0.00 94 1016.7
20260905121208 25 351 0.0 0.0 0.00 0.00 0.00 95 1016.6
20260905120707 25 351 0.0 0.0 0.00 0.00 0.00 95 1016.6
20260905120201 25 351 0.0 0.0 0.00 0.00 0.00 95 1016.8
20260905115655 24 351 0.0 0.0 0.00 0.00 0.00 96 1016.6
20260905115150 24 351 0.0 0.0 0.00 0.00 0.00 96 1016.6
20260905114645 24 352 0.0 0.0 0.00 0.00 0.00 96 1016.6
20260905114143 24 352 0.0 0.0 0.00 0.00 0.00 96 1016.3
20260905113638 24 352 0.0 0.0 0.00 0.00 0.00 97 1016.2
20260905113133 24 352 0.0 0.0 0.00 0.00 0.00 97 1016.2
20260905112627 24 352 0.0 0.0 0.00 0.00 0.00 96 1016.0
20260905112124 25 352 0.0 0.0 0.00 0.00 0.00 97 1016.0
20260905111618 25 352 0.0 0.0 0.00 0.00 0.00 97 1015.9
20260905111117 25 352 0.0 0.0 0.00 0.00 0.00 97 1016.0
20260905110616 25 352 0.0 0.0 0.00 0.00 0.00 96 1015.8
20260905110111 25 352 0.0 0.0 0.00 0.00 0.00 96 1015.8
20260905105606 25 352 0.0 0.0 0.00 0.00 0.00 96 1015.9
20260905105105 25 352 0.0 0.0 0.00 0.00 0.00 96 1015.8